Погода в Мадейра Бич

США     27°47′52″N   82°47′51″W
темп.,
°C
ветер,
м/с
пор.,
м/с
влажн.,
%
обл.,
%
осадки,
мм/ч
давл.,
гПа
погр.,
м
20 апреля, вт
вт2023:00+22с446697 0.1 1014305
02:00+22всв3473100 0.2 1014308
05:00+21в458580 1.1 1013360
08:00+21юв3392100 3.9 1015285
11:00+22ююв3387100 1.1 1015366
14:00+22зюз449199 7.4 1014332
17:00+23зсз4485100 5.1 1013433
20:00+22сз338496 7.1 1014412
21 апреля, ср
ср2123:00+22з228399 0.1 1015282
02:00+22зсз558470 0.3 1015444
05:00+21зсз56797 0.4 1015503
08:00+22сз5667100 0.4 1017568
11:00+23сз66570 0.0 1018750
14:00+24сз66530 0.0 1017796
17:00+24сз77525 0.0 1016760
20:00+23сз78512 0.0 1017654
22 апреля, чт
чт2223:00+22сз77600 0.0 1019547
02:00+22ссз67690 0.0 1018624
05:00+20ссв89645 0.0 1018454
08:00+18св78620 0.0 1020432
11:00+20св66501 0.0 1021619
14:00+23св33450 0.0 1020800
17:00+25ссз44410 0.0 1018653
20:00+24с77500 0.0 1019459
23 апреля, пт
пт2323:00+23св910504 0.0 1020675
02:00+20в89725 0.0 1020507
05:00+20в79775 0.0 1019451
08:00+20в797814 0.0 1020444
11:00+23вюв67632 0.0 1020781
14:00+26всв23575 0.0 1019604
17:00+26з545899 0.0 1017644
20:00+25сз4465100 0.0 1017265
24 апреля, сб
сб2423:00+24юв3466100 0.0 1018423
02:00+23юв81069100 0.0 1016557
05:00+23юв81274100 0.0 1015629
08:00+23юв81376100 0.0 1015615
11:00+26ююв8117195 0.0 1016781
14:00+26ю10137685 0.0 1015722
17:00+26ююз9128270 0.0 1013653
20:00+25ююз812860 0.0 1014563